EW4650 Weather Reports


Display with metric or nautical units.
time (UTC)temp
F
wind
direction
speed
MPH
gust
MPH
rain 1hr
in
rain 24hr
in
rain mn
in
humidity
%
barometer
mb
20260903082009 77 166 4.0 11.0 0.00 0.00 0.00 84 1010.4
20260903081509 77 211 6.0 11.0 0.00 0.00 0.00 84 1010.4
20260903081007 77 167 5.0 9.0 0.00 0.00 0.00 83 1010.4
20260903080507 78 170 5.0 14.0 0.00 0.00 0.00 83 1010.4
20260903080006 78 165 6.0 15.0 0.00 0.00 0.00 83 1010.5
20260903075506 78 208 7.0 15.0 0.00 0.00 0.00 83 1010.3
20260903075006 78 153 7.0 13.0 0.00 0.00 0.00 82 1010.4
20260903074505 78 203 6.0 14.0 0.00 0.00 0.00 82 1010.3
20260903074006 78 179 8.0 14.0 0.00 0.00 0.00 82 1010.3
20260903073504 78 173 4.0 16.0 0.00 0.00 0.00 82 1010.3
20260903073005 78 206 10.0 18.0 0.00 0.00 0.00 82 1010.3
20260903072503 79 204 7.0 14.0 0.00 0.00 0.00 81 1010.2
20260903072002 79 170 8.0 16.0 0.00 0.00 0.00 81 1010.2
20260903071502 79 182 9.0 16.0 0.00 0.00 0.00 81 1010.2
20260903071100 79 188 9.0 21.0 0.00 0.00 0.00 81 1010.4
20260903070559 79 178 11.0 18.0 0.00 0.00 0.00 80 1010.4
20260903070058 79 156 8.0 13.0 0.00 0.00 0.00 80 1010.4
20260903065557 79 187 7.0 13.0 0.00 0.00 0.00 79 1010.3
20260903065056 79 208 5.0 15.0 0.00 0.00 0.00 78 1010.4
20260903064602 80 187 9.0 15.0 0.00 0.00 0.00 78 1010.5
20260903064056 80 180 7.0 14.0 0.00 0.00 0.00 78 1010.5
20260903063555 80 180 7.0 14.0 0.00 0.00 0.00 77 1010.6
20260903063054 80 169 6.0 14.0 0.00 0.00 0.00 77 1010.5
20260903062555 80 153 6.0 14.0 0.00 0.00 0.00 76 1010.5
20260903062052 80 169 7.0 14.0 0.00 0.00 0.00 76 1010.5
20260903061558 80 186 6.0 14.0 0.00 0.00 0.00 76 1010.5
20260903061051 80 159 6.0 14.0 0.00 0.00 0.00 76 1010.6
20260903060550 80 180 8.0 12.0 0.00 0.00 0.00 75 1010.7
20260903060051 80 192 7.0 11.0 0.00 0.00 0.00 74 1010.7
20260903055547 80 159 7.0 11.0 0.00 0.00 0.00 73 1010.7
20260903055047 81 193 5.0 11.0 0.00 0.00 0.00 73 1010.6
20260903054550 81 204 7.0 10.0 0.00 0.00 0.00 73 1010.7
20260903054046 81 199 6.0 10.0 0.00 0.00 0.00 72 1010.6
20260903053548 81 167 6.0 12.0 0.00 0.00 0.00 71 1010.6
20260903053102 81 194 6.0 13.0 0.00 0.00 0.00 70 1010.6
20260903052544 81 176 8.0 13.0 0.00 0.00 0.00 70 1010.5
20260903052045 82 185 5.0 12.0 0.00 0.00 0.00 68 1010.6
20260903051542 82 183 6.0 12.0 0.00 0.00 0.00 68 1010.5
20260903051040 82 184 7.0 13.0 0.00 0.00 0.00 67 1010.5
20260903050541 82 184 8.0 13.0 0.00 0.00 0.00 65 1010.5
20260903050036 83 186 6.0 11.0 0.00 0.00 0.00 62 1010.6
20260903045536 83 188 5.0 10.0 0.00 0.00 0.00 60 1010.5
20260903045039 84 186 6.0 12.0 0.00 0.00 0.00 58 1010.4
20260903044547 84 180 8.0 14.0 0.00 0.00 0.00 57 1010.4
20260903044036 84 170 9.0 14.0 0.00 0.00 0.00 55 1010.4
20260903043535 84 174 8.0 17.0 0.00 0.00 0.00 54 1010.4
20260903043035 84 186 9.0 17.0 0.00 0.00 0.00 53 1010.3
20260903042536 84 164 5.0 10.0 0.00 0.00 0.00 53 1010.2
20260903042035 84 142 5.0 8.0 0.00 0.00 0.00 53 1010.2
20260903041535 83 148 4.0 8.0 0.00 0.00 0.00 53 1010.3
20260903041036 83 150 4.0 8.0 0.00 0.00 0.00 54 1010.2
20260903040534 83 148 4.0 7.0 0.00 0.00 0.00 54 1010.1
20260903040034 83 169 4.0 8.0 0.00 0.00 0.00 54 1010.1
20260903035533 83 141 4.0 8.0 0.00 0.00 0.00 54 1010.2
20260903035035 84 119 3.0 7.0 0.00 0.00 0.00 54 1010.1
20260903034636 84 173 3.0 5.0 0.00 0.00 0.00 54 1010.0
20260903034035 84 161 3.0 8.0 0.00 0.00 0.00 54 1010.0
20260903033533 84 145 4.0 8.0 0.00 0.00 0.00 54 1009.9
20260903033034 84 153 4.0 6.0 0.00 0.00 0.00 54 1010.0
20260903032537 84 152 3.0 7.0 0.00 0.00 0.00 54 1009.9
20260903032033 84 154 3.0 7.0 0.00 0.00 0.00 54 1009.8
20260903031533 84 142 3.0 7.0 0.00 0.00 0.00 53 1009.7
20260903031032 85 151 4.0 7.0 0.00 0.00 0.00 53 1009.7
20260903030533 85 157 3.0 7.0 0.00 0.00 0.00 53 1009.6
20260903030039 85 163 3.0 7.0 0.00 0.00 0.00 52 1009.6
20260903025531 85 138 4.0 5.0 0.00 0.00 0.00 52 1009.5
20260903025031 85 130 3.0 7.0 0.00 0.00 0.00 52 1009.6
20260903024539 85 151 3.0 7.0 0.00 0.00 0.00 51 1009.5
20260903024030 85 138 3.0 7.0 0.00 0.00 0.00 51 1009.3
20260903023535 85 163 4.0 7.0 0.00 0.00 0.00 51 1009.1
20260903023031 85 157 4.0 7.0 0.00 0.00 0.00 50 1009.2
20260903022530 85 153 3.0 7.0 0.00 0.00 0.00 50 1009.2
20260903022030 86 144 4.0 7.0 0.00 0.00 0.00 50 1009.0
20260903021535 86 157 4.0 7.0 0.00 0.00 0.00 50 1009.0
20260903021031 86 163 4.0 7.0 0.00 0.00 0.00 50 1008.9
20260903020531 86 164 5.0 7.0 0.00 0.00 0.00 50 1008.8
20260903020033 86 165 4.0 6.0 0.00 0.00 0.00 49 1008.7
20260903015529 86 176 4.0 5.0 0.00 0.00 0.00 49 1008.7
20260903015029 86 164 3.0 6.0 0.00 0.00 0.00 48 1008.8
20260903014528 87 172 4.0 6.0 0.00 0.00 0.00 48 1008.7
20260903014030 87 175 4.0 6.0 0.00 0.00 0.00 47 1008.6
20260903013529 87 171 4.0 6.0 0.00 0.00 0.00 47 1008.7
20260903013028 87 165 4.0 6.0 0.00 0.00 0.00 47 1008.7
20260903012528 88 182 3.0 6.0 0.00 0.00 0.00 46 1008.5
20260903012028 88 185 4.0 6.0 0.00 0.00 0.00 45 1008.5
20260903011539 88 184 3.0 5.0 0.00 0.00 0.00 45 1008.5
20260903011028 89 186 3.0 5.0 0.00 0.00 0.00 44 1008.4
20260903010527 89 197 3.0 5.0 0.00 0.00 0.00 44 1008.4
20260903010027 90 191 3.0 7.0 0.00 0.00 0.00 44 1008.3
20260903005527 90 204 4.0 6.0 0.00 0.00 0.00 43 1008.3
20260903005027 91 186 3.0 7.0 0.00 0.00 0.00 43 1008.4
20260903004531 91 209 3.0 7.0 0.00 0.00 0.00 43 1008.4
20260903004026 92 184 3.0 7.0 0.00 0.00 0.00 42 1008.4
20260903003526 92 177 4.0 7.0 0.00 0.00 0.00 42 1008.4
20260903003025 93 175 2.0 8.0 0.00 0.00 0.00 43 1008.4
20260903002525 93 161 4.0 8.0 0.00 0.00 0.00 42 1008.4
20260903002025 93 170 2.0 5.0 0.00 0.00 0.00 42 1008.4
20260903001524 94 147 3.0 7.0 0.00 0.00 0.00 42 1008.5
20260903001026 94 147 3.0 8.0 0.00 0.00 0.00 41 1008.5
20260903000524 94 164 2.0 8.0 0.00 0.00 0.00 41 1008.6
20260903000024 94 150 3.0 10.0 0.00 0.00 0.00 41 1008.6
20260902235524 95 151 6.0 10.0 0.00 0.00 0.00 40 1008.6
20260902235026 95 125 4.0 9.0 0.00 0.00 0.00 40 1008.6
20260902234522 95 138 4.0 9.0 0.00 0.00 0.00 40 1008.7
20260902234022 96 118 4.0 9.0 0.00 0.00 0.00 40 1008.6
20260902233522 96 164 3.0 9.0 0.00 0.00 0.00 40 1008.7
20260902233030 96 140 1.0 8.0 0.00 0.00 0.00 40 1008.6
20260902232521 96 124 5.0 9.0 0.00 0.00 0.00 39 1008.7
20260902232025 96 130 5.0 9.0 0.00 0.00 0.00 40 1008.7
20260902231526 96 136 6.0 10.0 0.00 0.00 0.00 40 1008.7
20260902231025 96 144 5.0 13.0 0.00 0.00 0.00 40 1008.8
20260902230524 95 112 3.0 8.0 0.00 0.00 0.00 41 1008.7
20260902230024 95 182 5.0 8.0 0.00 0.00 0.00 42 1008.7
20260902225523 94 106 1.0 6.0 0.00 0.00 0.00 43 1008.8
20260902225023 93 148 2.0 7.0 0.00 0.00 0.00 44 1008.7
20260902224522 92 118 3.0 8.0 0.00 0.00 0.00 44 1008.8
20260902224022 93 136 3.0 8.0 0.00 0.00 0.00 43 1008.8
20260902223523 93 101 4.0 8.0 0.00 0.00 0.00 44 1008.8
20260902223023 93 116 2.0 11.0 0.00 0.00 0.00 43 1008.8
20260902222521 93 124 4.0 15.0 0.00 0.00 0.00 43 1008.8
20260902222021 94 134 7.0 15.0 0.00 0.00 0.00 43 1008.7
20260902221521 94 151 4.0 10.0 0.00 0.00 0.00 42 1008.8
20260902221021 94 174 5.0 10.0 0.00 0.00 0.00 42 1008.9
20260902220521 95 127 4.0 8.0 0.00 0.00 0.00 43 1008.8
20260902220020 95 180 2.0 10.0 0.00 0.00 0.00 40 1008.9
20260902215519 96 161 6.0 10.0 0.00 0.00 0.00 40 1008.9
20260902215019 96 209 3.0 16.0 0.00 0.00 0.00 40 1008.8
20260902214518 97 177 7.0 16.0 0.00 0.00 0.00 38 1008.9
20260902214017 97 175 3.0 12.0 0.00 0.00 0.00 39 1008.9
20260902213516 97 175 2.0 10.0 0.00 0.00 0.00 40 1009.0
20260902213016 97 180 3.0 10.0 0.00 0.00 0.00 39 1009.0
20260902212515 96 182 6.0 10.0 0.00 0.00 0.00 41 1009.0
20260902212015 96 306 2.0 9.0 0.00 0.00 0.00 40 1009.1
20260902211515 97 126 4.0 14.0 0.00 0.00 0.00 39 1009.1
20260902211014 97 161 7.0 14.0 0.00 0.00 0.00 39 1009.1
20260902210514 96 249 5.0 9.0 0.00 0.00 0.00 41 1009.1
20260902210012 95 217 5.0 10.0 0.00 0.00 0.00 42 1009.2
20260902205512 94 153 5.0 10.0 0.00 0.00 0.00 43 1009.3
20260902205011 94 145 4.0 11.0 0.00 0.00 0.00 43 1009.4
20260902204516 94 161 7.0 11.0 0.00 0.00 0.00 43 1009.5
20260902204010 95 275 1.0 7.0 0.00 0.00 0.00 41 1009.6
20260902203509 95 267 1.0 9.0 0.00 0.00 0.00 41 1009.7
20260902203009 96 182 4.0 12.0 0.00 0.00 0.00 41 1009.8
20260902202509 97 237 9.0 16.0 0.00 0.00 0.00 40 1009.8
20260902202009 97 225 7.0 16.0 0.00 0.00 0.00 42 1009.9
20260902201515 96 181 4.0 19.0 0.00 0.00 0.00 43 1009.9
20260902201007 97 250 9.0 19.0 0.00 0.00 0.00 42 1010.1
20260902200507 97 264 8.0 11.0 0.00 0.00 0.00 42 1010.1
20260902200003 97 84 7.0 14.0 0.00 0.00 0.00 41 1010.1
20260902195502 96 158 9.0 14.0 0.00 0.00 0.00 43 1010.3
20260902195001 96 190 6.0 13.0 0.00 0.00 0.00 43 1010.5
20260902194602 95 144 7.0 18.0 0.00 0.00 0.00 44 1010.5
20260902194100 95 232 10.0 18.0 0.00 0.00 0.00 43 1010.6
20260902193604 95 179 4.0 13.0 0.00 0.00 0.00 45 1010.6
20260902193059 95 209 3.0 18.0 0.00 0.00 0.00 44 1010.7
20260902192558 96 217 7.0 15.0 0.00 0.00 0.00 44 1010.8
20260902192057 96 217 10.0 15.0 0.00 0.00 0.00 44 1010.9
20260902191556 95 178 2.0 12.0 0.00 0.00 0.00 44 1010.9
20260902191055 95 196 9.0 15.0 0.00 0.00 0.00 45 1010.9
20260902190553 94 165 6.0 15.0 0.00 0.00 0.00 47 1011.0
20260902190053 93 211 5.0 13.0 0.00 0.00 0.00 47 1011.0
20260902185552 93 214 4.0 16.0 0.00 0.00 0.00 46 1011.2
20260902185050 94 244 10.0 16.0 0.00 0.00 0.00 45 1011.2
20260902184550 94 289 6.0 14.0 0.00 0.00 0.00 44 1011.4
20260902184049 94 217 7.0 15.0 0.00 0.00 0.00 44 1011.4
20260902183549 94 227 8.0 13.0 0.00 0.00 0.00 44 1011.4
20260902183053 94 232 10.0 15.0 0.00 0.00 0.00 44 1011.5
20260902182546 93 258 7.0 15.0 0.00 0.00 0.00 45 1011.7
20260902182047 94 233 8.0 13.0 0.00 0.00 0.00 43 1011.7
20260902181549 94 206 7.0 14.0 0.00 0.00 0.00 45 1011.8
20260902181045 94 190 8.0 14.0 0.00 0.00 0.00 44 1012.0
20260902180544 93 261 8.0 15.0 0.00 0.00 0.00 44 1012.0
20260902180049 93 233 6.0 15.0 0.00 0.00 0.00 46 1012.1
20260902175540 93 229 11.0 15.0 0.00 0.00 0.00 45 1012.3
20260902175042 92 227 6.0 16.0 0.00 0.00 0.00 46 1012.3
20260902174538 93 257 10.0 15.0 0.00 0.00 0.00 45 1012.4
20260902174036 92 236 6.0 12.0 0.00 0.00 0.00 45 1012.5
20260902173536 92 221 6.0 16.0 0.00 0.00 0.00 45 1012.6
20260902173034 92 249 12.0 16.0 0.00 0.00 0.00 43 1012.7
20260902172536 92 242 10.0 16.0 0.00 0.00 0.00 42 1012.7
20260902172034 91 204 8.0 14.0 0.00 0.00 0.00 43 1012.7
20260902171534 91 208 9.0 16.0 0.00 0.00 0.00 43 1012.9
20260902171031 91 216 9.0 16.0 0.00 0.00 0.00 45 1012.8
20260902170532 90 240 10.0 15.0 0.00 0.00 0.00 46 1012.8
20260902170029 90 225 9.0 17.0 0.00 0.00 0.00 48 1012.9
20260902165528 90 216 6.0 17.0 0.00 0.00 0.00 47 1012.9
20260902165028 90 227 5.0 15.0 0.00 0.00 0.00 50 1013.0
20260902164526 90 226 8.0 15.0 0.00 0.00 0.00 53 1013.0
20260902164025 89 186 6.0 13.0 0.00 0.00 0.00 53 1013.0
20260902163524 88 174 5.0 11.0 0.00 0.00 0.00 56 1012.9
20260902163023 87 250 6.0 14.0 0.00 0.00 0.00 55 1013.0
20260902162522 87 229 8.0 14.0 0.00 0.00 0.00 56 1013.1
20260902162021 87 196 6.0 14.0 0.00 0.00 0.00 58 1013.1
20260902161521 86 226 7.0 14.0 0.00 0.00 0.00 59 1013.0
20260902161022 86 213 11.0 14.0 0.00 0.00 0.00 57 1013.0
20260902160519 86 192 9.0 15.0 0.00 0.00 0.00 58 1013.0
20260902160019 86 209 7.0 11.0 0.00 0.00 0.00 62 1013.0
20260902155518 86 198 6.0 12.0 0.00 0.00 0.00 64 1013.1
20260902155017 85 213 9.0 13.0 0.00 0.00 0.00 63 1013.1
20260902154515 85 195 7.0 12.0 0.00 0.00 0.00 67 1013.0
20260902154014 84 227 7.0 10.0 0.00 0.00 0.00 67 1013.0
20260902153513 84 205 5.0 11.0 0.00 0.00 0.00 69 1013.0
20260902153012 83 240 6.0 11.0 0.00 0.00 0.00 71 1013.0
20260902152511 83 237 7.0 11.0 0.00 0.00 0.00 70 1013.0
20260902152011 83 227 8.0 13.0 0.00 0.00 0.00 71 1013.1
20260902151511 83 207 7.0 11.0 0.00 0.00 0.00 70 1013.1
20260902151011 83 230 7.0 11.0 0.00 0.00 0.00 72 1013.0
20260902150510 83 234 5.0 10.0 0.00 0.00 0.00 72 1013.1
20260902150009 82 204 5.0 10.0 0.00 0.00 0.00 73 1013.1
20260902145507 82 242 7.0 10.0 0.00 0.00 0.00 74 1013.1
20260902145007 81 262 6.0 14.0 0.00 0.00 0.00 74 1013.0
20260902144505 81 254 6.0 14.0 0.00 0.00 0.00 74 1013.0
20260902144105 80 216 8.0 14.0 0.00 0.00 0.00 75 1013.0
20260902143505 80 215 8.0 14.0 0.00 0.00 0.00 76 1012.9
20260902143004 79 236 7.0 12.0 0.00 0.00 0.00 77 1012.9
20260902142504 79 234 7.0 12.0 0.00 0.00 0.00 78 1012.9
20260902142004 78 219 7.0 11.0 0.00 0.00 0.00 79 1012.9
20260902141506 78 240 5.0 11.0 0.00 0.00 0.00 81 1012.9
20260902141004 78 234 7.0 10.0 0.00 0.00 0.00 82 1012.9
20260902140505 77 225 7.0 9.0 0.00 0.00 0.00 83 1012.8
20260902140003 77 223 6.0 9.0 0.00 0.00 0.00 84 1012.9
20260902135502 76 222 5.0 9.0 0.00 0.00 0.00 85 1012.9
20260902135002 76 240 4.0 9.0 0.00 0.00 0.00 85 1012.8
20260902134502 76 221 5.0 7.0 0.00 0.00 0.00 86 1012.8
20260902134002 75 213 4.0 5.0 0.00 0.00 0.00 86 1012.8
20260902133602 75 234 3.0 5.0 0.00 0.00 0.00 86 1012.9
20260902133002 74 219 2.0 4.0 0.00 0.00 0.00 87 1012.8
20260902132503 74 223 2.0 3.0 0.00 0.00 0.00 87 1012.8
20260902132001 73 184 1.0 3.0 0.00 0.00 0.00 88 1012.8
20260902131501 73 184 2.0 3.0 0.00 0.00 0.00 88 1012.7
20260902131001 73 184 1.0 3.0 0.00 0.00 0.00 88 1012.7
20260902130559 73 184 0.0 3.0 0.00 0.00 0.00 88 1012.7
20260902130059 72 184 1.0 3.0 0.00 0.00 0.00 89 1012.7
20260902125559 72 184 2.0 4.0 0.00 0.00 0.00 89 1012.6
20260902125058 72 135 2.0 3.0 0.00 0.00 0.00 89 1012.6
20260902124605 72 144 1.0 3.0 0.00 0.00 0.00 89 1012.4
20260902124058 72 139 2.0 3.0 0.00 0.00 0.00 89 1012.4
20260902123558 72 139 1.0 3.0 0.00 0.00 0.00 89 1012.4
20260902123058 72 128 1.0 4.0 0.00 0.00 0.00 89 1012.3
20260902122558 72 149 2.0 4.0 0.00 0.00 0.00 88 1012.4
20260902122057 72 147 3.0 4.0 0.00 0.00 0.00 88 1012.3
20260902121604 72 169 2.0 5.0 0.00 0.00 0.00 88 1012.3
20260902121057 72 160 3.0 5.0 0.00 0.00 0.00 88 1012.2
20260902120558 72 166 4.0 5.0 0.00 0.00 0.00 87 1012.2
20260902120057 72 167 1.0 5.0 0.00 0.00 0.00 87 1012.2
20260902115555 72 170 3.0 5.0 0.00 0.00 0.00 87 1012.3
20260902115055 72 175 2.0 5.0 0.00 0.00 0.00 87 1012.3
20260902114556 72 149 2.0 5.0 0.00 0.00 0.00 87 1012.3
20260902114055 72 173 2.0 3.0 0.00 0.00 0.00 87 1012.2
20260902113559 72 173 2.0 3.0 0.00 0.00 0.00 87 1012.3
20260902113056 72 155 2.0 3.0 0.00 0.00 0.00 86 1012.2
20260902112554 72 165 1.0 3.0 0.00 0.00 0.00 86 1012.3
20260902112053 72 171 1.0 4.0 0.00 0.00 0.00 85 1012.2
20260902111557 73 188 1.0 3.0 0.00 0.00 0.00 85 1012.3
20260902111053 73 196 2.0 4.0 0.00 0.00 0.00 84 1012.3
20260902110553 73 179 2.0 4.0 0.00 0.00 0.00 84 1012.3
20260902110051 73 188 2.0 3.0 0.00 0.00 0.00 83 1012.2
20260902105550 73 196 1.0 4.0 0.00 0.00 0.00 82 1012.1
20260902105049 73 200 1.0 5.0 0.00 0.00 0.00 82 1012.2
20260902104551 74 200 1.0 5.0 0.00 0.00 0.00 82 1012.1
20260902104049 74 190 2.0 6.0 0.00 0.00 0.00 82 1012.2
20260902103548 74 201 2.0 6.0 0.00 0.00 0.00 82 1012.2
20260902103047 74 198 2.0 6.0 0.00 0.00 0.00 81 1012.1
20260902102547 74 202 2.0 5.0 0.00 0.00 0.00 81 1012.0
20260902102047 74 198 3.0 6.0 0.00 0.00 0.00 81 1012.0
20260902101555 74 208 3.0 8.0 0.00 0.00 0.00 81 1012.0
20260902101046 74 212 4.0 8.0 0.00 0.00 0.00 82 1012.0
20260902100545 74 208 4.0 7.0 0.00 0.00 0.00 82 1011.9
20260902100045 75 213 4.0 7.0 0.00 0.00 0.00 83 1012.0
20260902095544 75 202 4.0 7.0 0.00 0.00 0.00 83 1012.0
20260902095043 75 187 5.0 7.0 0.00 0.00 0.00 83 1012.1
20260902094543 75 193 3.0 9.0 0.00 0.00 0.00 83 1012.1
20260902094042 75 205 5.0 8.0 0.00 0.00 0.00 82 1012.1
20260902093542 75 199 3.0 8.0 0.00 0.00 0.00 82 1012.1
20260902093052 75 205 4.0 8.0 0.00 0.00 0.00 82 1012.2
20260902092541 75 175 4.0 7.0 0.00 0.00 0.00 82 1012.2
20260902092043 75 215 3.0 6.0 0.00 0.00 0.00 81 1012.3
20260902091550 75 175 3.0 7.0 0.00 0.00 0.00 81 1012.3
20260902091040 75 159 4.0 8.0 0.00 0.00 0.00 81 1012.3
20260902090540 75 194 4.0 8.0 0.00 0.00 0.00 81 1012.3
20260902090043 75 193 4.0 8.0 0.00 0.00 0.00 80 1012.2
20260902085539 75 196 4.0 8.0 0.00 0.00 0.00 80 1012.3
20260902085038 75 200 4.0 8.0 0.00 0.00 0.00 79 1012.3
20260902084548 75 186 4.0 7.0 0.00 0.00 0.00 79 1012.4
20260902084038 75 219 4.0 11.0 0.00 0.00 0.00 78 1012.4
20260902083540 75 194 4.0 11.0 0.00 0.00 0.00 78 1012.4
20260902083046 75 190 3.0 7.0 0.00 0.00 0.00 77 1012.4
20260902082536 75 195 3.0 7.0 0.00 0.00 0.00 77 1012.4